THORAD DELTA 1 DEB, 8164

Orbit data source: Space-Track

THORAD DELTA 1 DEB, 8164 is space debris in SSO originally from a launch on Fri, 15 Nov 1974 UTC launched from the Air Force Western Test Range (AFWTR). Debris objects in space refer to the collection of defunct objects orbiting the Earth. Examples of debris include non-operational satellites, rocket bodies, and fragments generated from explosions, collisions, or faulty payload assembly.

Loading next visibility...
Identifier
8164, 1974-089AE
Orbit
SSO
Last TLE update
15 hours ago
Origin
Manufacturer
Unknown
Mission
Spacecraft
Bus & Motor
Unknown
Mass
Unknown
Launch date (UTC)
1974-11-15 (50 years ago)
Launch vehicle
Unknown
Launch site
Air Force Western Test Range (AFWTR)
Object type
Payload
Rocket body
Debris
Shape & HBR
Unknown
Radar Cross Section
Medium (>0.1 m² and <1 m²)

Expand to show TLE details & history

TLE from 15 hours ago
0 THORAD DELTA 1 DEB
1 08164U 74089AE  25128.62053319 -.00000038  00000-0  20507-4 0  9994
2 08164 101.5816 268.9536 0120692  22.6572 349.2544 12.28966170264911
Epoch: 2025-05-08T14:53Z
Definitive object data (Epoch: 2025-05-08T14:53:34.067Z)
Latitude
11.36905°
Longitude
176.52321°
Altitude
1,461.502 km
Speed
7.175 km/s
True Right ascension
17h 46m 24s
True Declination
11° 18' 31"
Sunlit
Object was in full shadow at TLE epoch
Visualization TLE readout
Latitude
-72.37842°
Longitude
-140.5915°
Altitude
1,592.447 km
Speed
7.067 km/s
Apparent Right ascension
00h 32m 07s
Apparent Declination
-63° 53' 55"
Sunlit
Object is in daylight
Visualization observer readout
Local Sidereal Time
14:11:46
Azimuth
156.817° SSE
Elevation
-61.918°
Doppler factor
1
Orbital elements
Apogee altitude
1,646.993 km
Perigee altitude
1,455.589 km
Semi-major axis
7,929.428 km
Eccentricity
0.0120692
Inclination
101.5816°
RAAN
268.9536°
Arg. of periapsis
22.6572°
True anomaly
348.99266°
Mean anomaly
349.2544°
Eccentric anomaly
349.12392°
Mean motion
3.07383 °/min
BSTAR
0.000020507
Orbital period
117.12 mins
Loading maneuver chart data...
Loading SW <> Apogee altitude chart data...
Loading historical data...
Loading historical data...
Loading historical data...
Loading historical data...
Loading historical data...
Loading historical data...
Loading historical data...

THORAD DELTA 1 DEB Visibility forecast

Observer location: undefined°, undefined°

Span
Click to sort rows by Start time (UTC) header in descending order
Start Az.
Max El. time (UTC)
Max El. Az.
Max El.
End time (UTC)
End Az.
6 mins2025-05-09 06:41:59.839Z69.289° E2025-05-09 06:44:59.839Z47.386° ENE13.063°2025-05-09 06:47:59.839Z25.065° NE
14 mins2025-05-09 08:31:59.839Z140.923° SSE2025-05-09 08:38:59.839Z52.098° ENE40.986°2025-05-09 08:45:59.839Z350.619° N
11 mins2025-05-09 10:28:59.839Z217.894° SW2025-05-09 10:33:59.839Z264.554° W25.396°2025-05-09 10:39:59.839Z316.79° NNW
12 mins2025-05-09 20:48:59.839Z51.237° ENE2025-05-09 20:53:59.839Z93.185° ESE23.871°2025-05-09 21:00:59.839Z146.215° SSE
16 mins2025-05-09 22:41:59.839Z11.83° NNE2025-05-09 22:49:59.839Z276.55° WNW43.321°2025-05-09 22:57:59.839Z211.029° SW
8 mins2025-05-10 00:39:59.839Z335.583° NNW2025-05-10 00:42:59.839Z312.81° NW16.419°2025-05-10 00:47:59.839Z277.486° WNW
|